Flag for U.S.A. Weather past 2 weeks in Wright, Florida, U.S.A.

Now
53 °F

Overcast.


Feels Like: 50 °F
Forecast: 51 / 59 °F
Wind: 9 mph from Northeast

Location: Hurlburt Field

Current Time: Dec 21, 2014 at 3:33:46 AM

Latest Report: Dec 21, 2014 at 2:58 AM


Visibility: 10 mi

Pressure: 30.09 "Hg

Humidity: 84%

Dew point: 48 °F

Location of WrightLocation

Historic Weather in Wright — Graph

°F

Wright temperature yesterday

Maximum temperature yesterday: 54 °F (at 4:00 PM)
Minimum temperature yesterday: 48 °F (at 12:58 AM)
Average temperature yesterday: 51 °F

Past Weeks' High & Low Weather Summary

 TemperatureHumidityPressure
High76 °F (Dec 6, 11:58 AM)100% (Dec 6, 3:58 AM)30.34 "Hg (Dec 6, 3:58 AM)
Low35 °F (Dec 11, 6:58 AM)16% (Dec 12, 10:58 AM)30.04 "Hg (Dec 15, 4:58 PM)
Average53 °F67%30.17 "Hg
* Reported Dec 6 1:58 AM — Dec 21 1:58 AM, Wright, Weather by CustomWeather, © 2014

Note: Actual official high and low records may vary slightly from our data, if they occured in-between our weather recording intervals... More about our weather records

Advertising

Wright weather history for previous 24 hours

 ConditionsComfort  
Time TempWeatherWind HumidityBarometerVisibility
1:58 AM
Dec 21
53 °FOvercast.9 mph84%30.09 "Hg10 mi
12:58 AM52 °FOvercast.9 mph85%30.09 "Hg10 mi
11:58 PM
Dec 20
52 °FMostly cloudy.12 mph85%30.11 "Hg10 mi
9:58 PM52 °FMostly cloudy.9 mph85%30.13 "Hg10 mi
8:58 PM52 °FOvercast.9 mph84%30.11 "Hg10 mi
7:58 PM53 °FOvercast.12 mph85%30.11 "Hg10 mi
5:58 PM53 °FOvercast.8 mph86%30.11 "Hg10 mi
4:58 PM54 °FMostly cloudy.8 mph87%30.09 "Hg10 mi
4:00 PM54 °FOvercast.8 mph88%30.07 "Hg10 mi
2:58 PM53 °FOvercast.10 mph87%30.06 "Hg10 mi
1:58 PM53 °FLight rain. Fog.5 mph87%30.09 "Hg4 mi
1:03 PM52 °FRain. Fog.7 mph88%30.07 "Hg4 mi
12:58 PM52 °FLight rain. Fog.8 mph88%30.09 "Hg5 mi
11:58 AM52 °FMore clouds than sun.9 mph88%30.09 "Hg10 mi
10:58 AM51 °FLight rain. Mostly cloudy.8 mph88%30.14 "Hg7 mi
9:58 AM51 °FLight rain. Mostly cloudy.9 mph87%30.14 "Hg7 mi
8:58 AM50 °FLight rain. Fog.9 mph87%30.14 "Hg6 mi
7:58 AM50 °FOvercast.13 mph82%30.13 "Hg10 mi
6:58 AM49 °FOvercast.13 mph87%30.11 "Hg10 mi
6:03 AM48 °FRain. Fog.16 mph87%30.10 "Hg5 mi
5:58 AM48 °FLight rain. More clouds than sun.15 mph87%30.11 "Hg10 mi
4:58 AM49 °FRain. Overcast.15 mph87%30.09 "Hg10 mi
3:58 AM49 °FLight rain. Overcast.8 mph87%30.06 "Hg10 mi
Weather by CustomWeather, © 2014

See weather overviewHow to use our weather pages